www.pogodaiklimat.ru

Погода и климат >> Архив погоды >> Пакистан >> Джанг


ПОГОДА в Джанге

  • Прогноз погоды в Джанге
  • Монитор погоды в Джанге

АРХИВ ПОГОДЫ в Джанге

Время (UTC), дата Ветер
(напр.,м/с)
 
Видим.   Явления Облачность Т
(С)
Тd
(С)
f
(%)
Тe
(С)
Тes
(С)
Комфортность P
(гПа)
Po
(гПа)
Тmin
(С)
Tmax
(С)
R
(мм)
R24
(мм)
S
(см)
03 14.09 ЮВ 1 4000 м дым ясно +31.0 +25.4 72 +45 +49 опасность
перегрева
1004.6 987.1 +28.5
06 14.09 Ю 1 10 км ясно +36.5 +24.6 51 +49 +67 опасность
перегрева
1004.8 987.8
09 14.09 ЮВ 1 10 км ясно +38.5 +23.8 43 +49 +65 опасность
перегрева
1002.3 985.5
12 14.09 штиль 0 10 км ясно +38.5 +22.0 39 +47 +49 опасность
перегрева
1001.1 984.3 +40.0
15 14.09 штиль 0 4000 м дым ясно +33.5 +25.1 62 +48 +48 опасность
перегрева
1002.6 985.4
18 14.09 штиль 0 4000 м дым ясно +31.0 +25.4 72 +45 +45 опасность
перегрева
1003.0 985.5
21 14.09 штиль 0 4000 м дым ясно +29.0 +25.5 81 +43 +43 опасность
перегрева
1003.4 985.5
00 15.09 штиль 0 4000 м дым ясно +28.0 +25.2 85 +41 +41 опасность
перегрева
1003.8 986.2
03 15.09 ЮВ 1 4000 м дым ясно +30.5 +26.4 79 +47 +51 опасность
перегрева
1005.5 988.0 +27.6
06 15.09 ЮВ 1 4000 м дым ясно +36.0 +25.6 55 +51 +68 опасность
перегрева
1006.9 989.7
09 15.09 штиль 0 4000 м мгла 3/0
[Ac trans]
+38.0 +24.0 45 +49 +64 опасность
перегрева
1003.0 986.1
12 15.09 Ю 2 4000 м мгла ясно +37.0 +24.4 49 +49 +51 опасность
перегрева
1001.7 984.7 +38.5
18 15.09 Ю 1 4000 м дым ясно +31.5 +23.6 63 +43 +43 опасность
перегрева
1004.2 986.5
21 15.09 ЮВ 1 4000 м дым ясно +30.0 +24.3 72 +42 +42 опасность
перегрева
1003.1 985.4
00 16.09 ЮВ 1 4000 м дым ясно +29.0 +24.8 78 +41 +41 опасность
перегрева
1003.0 985.2
06 16.09 ЮВ 1 4000 м дым ясно +36.5 +25.5 53 +51 +68 опасность
перегрева
1004.6 987.4
09 16.09 ЮВ 1 4000 м мгла 5/4 1200 м
[Sc Ac trans]
+38.5 +24.6 45 +50 +59 опасность
перегрева
1002.4 985.5
12 16.09 ЮВ 2 4000 м мгла 5/4 1200 м
[Sc Ac trans]
+37.5 +24.2 47 +49 +50 опасность
перегрева
1000.4 983.2 +39.2
15 16.09 ЮВ 2 4000 м дым ясно +34.0 +23.3 54 +45 +45 опасность
перегрева
1000.3 982.9
18 16.09 штиль 0 4000 м дым ясно +31.0 +23.9 66 +43 +43 опасность
перегрева
1002.0 984.3
21 16.09 штиль 0 4000 м дым ясно +29.5 +24.5 75 +42 +42 опасность
перегрева
1001.4 983.7
00 17.09 ЮВ 1 4000 м дым ясно +29.0 +24.8 78 +41 +41 опасность
перегрева
1000.9 983.1
03 17.09 штиль 0 4000 м дым ясно +30.0 +26.5 82 +46 +51 опасность
перегрева
1003.9 986.0 +27.4
06 17.09 штиль 0 10 км ясно +35.0 +26.8 63 +53 +73 опасность
перегрева
1005.3 987.7
09 17.09 ЮВ 2 10 км 3/3 1200 м
[Sc]
+38.5 +25.4 48 +53 +62 опасность
перегрева
1002.2 985.3
12 17.09 штиль 0 10 км ясно +37.5 +23.4 45 +48 +50 опасность
перегрева
1001.3 984.1 +39.0
15 17.09 штиль 0 4000 м дым {гроза} ясно +28.0 +22.1 70 +36 +36 очень
душно
1004.0 986.2 1
18 17.09 штиль 0 4000 м дым {гроза} ясно +27.5 +23.1 77 +37 +37 очень
душно
1005.1 987.3
21 17.09 ЮВ 1 4000 м дым ясно +26.5 +23.6 84 +36 +36 очень
душно
1004.5 986.5
00 18.09 штиль 0 4000 м дым ясно +26.0 +24.6 92 +37 +37 очень
душно
1004.8 986.8
03 18.09 штиль 0 10 км ясно +32.0 +24.2 63 +44 +49 опасность
перегрева
1007.1 989.6 +25.5
06 18.09 Ю 1 10 км ясно +37.5 +24.2 47 +49 +67 опасность
перегрева
1007.6 990.4
09 18.09 Ю 1 10 км ясно +38.5 +23.8 43 +49 +64 опасность
перегрева
1005.9 989.1
12 18.09 штиль 0 10 км ясно +36.5 +25.5 53 +51 +53 опасность
перегрева
1005.0 988.0 +38.8
15 18.09 штиль 0 4000 м дым ясно +33.0 +26.3 68 +49 +49 опасность
перегрева
1005.7 988.5
18 18.09 штиль 0 4000 м дым ясно +30.5 +24.9 72 +44 +44 опасность
перегрева
1006.8 989.3
21 18.09 штиль 0 4000 м дым ясно +28.5 +23.5 74 +39 +39 очень
душно
1006.4 988.8
00 19.09 ЮВ 1 4000 м дым ясно +27.5 +23.9 81 +38 +38 очень
душно
1006.9 989.3
03 19.09 Ю 1 4000 м дым ясно +29.5 +25.3 78 +43 +47 опасность
перегрева
1009.2 991.5 +27.0
06 19.09 ЮВ 1 4000 м дым ясно +35.5 +23.5 50 +46 +63 опасность
перегрева
1010.6 993.4
09 19.09 ЮВ 1 10 км ясно +36.5 +23.0 46 +46 +61 опасность
перегрева
1008.6 991.4
12 19.09 ЮВ 1 10 км 3/0
[Ac trans]
+35.0 +22.9 50 +45 +46 опасность
перегрева
1007.6 990.2 +37.5
15 19.09 Ю 1 4000 м дым ясно +32.0 +23.4 60 +43 +43 опасность
перегрева
1008.7 991.0
18 19.09 ЮВ 1 4000 м дым ясно +29.5 +23.8 71 +40 +40 очень
душно
1009.7 992.0
21 19.09 В 2 4000 м дым ясно +28.0 +24.4 81 +39 +39 очень
душно
1009.1 991.3
00 20.09 Ю 1 4000 м дым ясно +26.5 +24.4 88 +37 +37 очень
душно
1008.8 990.8
03 20.09 ЮВ 1 4000 м дым 4/0
[Ac trans]
+27.5 +24.7 85 +39 +42 очень
душно
1010.2 992.4 +26.2
06 20.09 З 3 4000 м дым 9/5 1200 м
[Sc Ac As]
+30.5 +24.9 72 +44 +46 опасность
перегрева
1011.6 993.7
09 20.09 Ю 1 4000 м дым 8/4 1200 м
[Sc Ac As]
+34.0 +24.1 56 +46 +50 опасность
перегрева
1009.8 992.2
12 20.09 Ю 2 4000 м дым 6/0
[Ac trans Ci fib]
+33.5 +23.5 56 +44 +46 опасность
перегрева
1007.6 990.0 +35.2
15 20.09 штиль 0 4000 м дым 4/0
[Ac trans]
+30.0 +24.3 72 +42 +42 опасность
перегрева
1008.3 990.4
18 20.09 штиль 0 4000 м дым ясно +27.0 +22.6 77 +36 +36 очень
душно
1009.3 991.3

 

Местоположение метеостанции Джанг (Пакистан): широта 31.27 долгота 72.32 высота над уровнем моря 153 м.

В архиве по умолчанию представлена погода в Джанге за последнюю неделю. Архивные данные за месяц целиком и за предыдущие месяцы, начиная с января 2011 года, Вы можете получить, выбрав интересующий диапазон дат из раскрывающегося списка и нажав кнопку "Ввод!".


*Определитесь, кто Вы:
робот инопланетянин человек

Внимание! Время в таблицах - всемирное. Для получения местного времени необходимо прибавить поправку, которая равна 5 ч.

Смотрите также архив погоды в соседних городах и на ближайших метеорологических станциях:

Погода в Тоба Тек Сингх (Пакистан) (35 км)
Погода на Авиабазе Raifiqui (Пакистан) (56 км)
Погода в Фейсалабаде (Пакистан) (76 км)
Погода в Нур Пур Тал (Пакистан) (78 км)
Погода в Саргодхе (Пакистан) (93 км)
Погода в Саргодхе (Пакистан) (93 км)
Погода в Сахивале (Пакистан) (95 км)
Погода в Ханевале (Пакистан) (115 км)
Погода в Окаре (Пакистан) (118 км)
Погода в Бхаккаре (Пакистан) (125 км)

Пояснения к столбцам:

Ветер - указаны скорость ветра в м/с - средняя за 10 мин, порывы в срок и между сроками (в фигурных скобках) и направление, откуда дует ветер: С - северный, СВ - северо-восточный, В - восточный, ЮВ - юго-восточный, Ю - южный, ЮЗ - юго-западный, З - западный, СЗ - северо-западный.
Видимость - горизонтальная дальность видимости в метрах или километрах. При видимости от 1 до 10 км при отсутствии осадков обычно наблюдается дымка, при ухудшении видимости до 1 км и менее - туман. В сухую погоду видимость может ухудшаться дымом, пылью или мглою.
Явления - указаны атмосферные явления, наблюдавшиеся в срок или в последний час перед сроком; фигурными скобками обозначены явления, наблюдавшиеся между сроками (за 1-3 часа до срока); квадратными скобками обозначены град или гололедные отложения с указанием их диаметра в мм.
Облачность - указаны через наклонную черту общая и нижняя облачность в баллах и высота нижней границы облаков в метрах; квадратными скобками обозначены формы облаков: Ci - перистые, Cs - перисто-слоистые, Cc - перисто-кучевые, Ac - высококучевые, As - высокослоистые, Sc - слоисто-кучевые, Ns - слоисто-дождевые, Cu - кучевые, Cb - кучево-дождевые. Подробнее классификацию облаков см. в Атласе облаков (PDF).
T - Температура воздуха - температура, измеренная на высоте 2 м над землей.
Td - Температура точки росы - температура, при понижении до которой содержащийся в воздухе водяной пар достигнет насыщения.
f - Относительная влажность воздуха - влажноcть воздуха, измеренная на высоте 2 м над землей.
Te - Эффективная температура - температура, которую ощущает одетый по сезону человек в тени. Характеристика душности погоды. При расчете учитывается влияние влажности воздуха и скорости ветра на теплоощущения человека.
Tes - Эффективная температура на солнце - температура, которую ощущает человек, с поправкой на солнечный нагрев. Характеристика знойности погоды. Зависит от высоты солнца над горизонтом, облачности и скорости ветра. Ночью, в пасмурную погоду, а также при ветре 12 м/с и более поправка равна нулю.
P - Атмосферное давление - приведенное к уровню моря атмосферное давление.
Po - Атмосферное давление - измеренное на уровне метеостанции атмосферное давление.
Tmin - Минимальная температура - минимум температуры воздуха на высоте 2 м над землей.
Tmax - Максимальная температура - максимум температуры воздуха на высоте 2 м над землей.
R - Количество осадков - Количество выпавших осадков за период времени, мм. При наведении курсора мыши на число - период времени, за который выпало указанное количество осадков.
R24 - Количество осадков - Количество выпавших осадков за 24 часа, мм.
S - Снежный покров - Высота снежного покрова, см. При наведении курсора мыши на число - состояние снежного покрова и степень покрытия местности в баллах.